Location: Piotrkow Trybunalski
(51.4000°N, 19.6830°E)
Time: 09:55:31
(UTC+01:00)

BlueWalker 3 - Pass Details

Date: 04 December 2022
Orbit: 499 x 517 km, 53.2° (Epoch: 29 January)

Event Time Altitude Azimuth Distance (km) Brightness Sun altitude
Rises 17:58:18 0° 285° (WNW) 2,631 6.7 -21.3°
Reaches altitude 10° 18:00:31 10° 286° (WNW) 1,739 5.6 -21.7°
Enters shadow 18:04:20 80° 337° (NNW) 523 1.9 -22.3°
